默认 日期 大小 文件数 浏览量 最新下载 xml
fire 2022磁力链接相关资源由用户搜索指令自动获取,结果来源于网络,本站不存储任何资料,亦不承担任何责任,请于24小时内删除,搜索到628个磁力,用时20ms。
    ... .mp3": 3706502, "03 - Flames of Fire.mp3": 7686523, "08 - Soldiers of ...
创建时间: 2022-03-21 20:42:13 大小:85.32 MB 文件数量:10 热度:3 最近下载:2025-01-04 01:55:04
    {"Subs": {"2_English.srt": 138612, "3_English.srt": 146787}, "RARBG.txt": 30, "RARBG_DO_NOT_MIRROR.exe": 99, "Love.On.Fire.2022.WEBRip.x264-ION10.mp4": 902806079}
创建时间: 2022-03-22 05:39:45 大小:861.26 MB 文件数量:5 热度:3 最近下载:2025-01-22 14:27:10
    {"RARBG.txt": 31, "Love.on.Fire.2022.1080p.AMZN.WEB-DL.DDP5.1.H.264-WELP.mkv": 6810144024}
创建时间: 2022-03-22 09:20:14 大小:6.34 GB 文件数量:2 热度:4 最近下载:2025-01-20 23:31:02
    {"Subs": {"English.srt": 137815, "SDH.eng.srt": 145958}, "www.YTS.MX.jpg": 53226, "YTSProxies.com.txt": 358, "Love.On.Fire.2022.1080p.WEBRip.x264.AAC5.1-[YTS.MX].mp4": 1748007054, "Love.On.Fire.2022.1080p.WEBRip.x264.AAC5.1-[YTS.MX].srt": 137815}
创建时间: 2022-03-22 13:53:48 大小:1.63 GB 文件数量:6 热度:4 最近下载:2025-03-10 14:46:02
    ... Wonder.mp3": 9936896, "01. Fighting Fire with Fire.mp3": 11825152, "06. Crippled ...
创建时间: 2022-03-22 14:30:30 大小:84.02 MB 文件数量:9 热度:3 最近下载:2025-01-23 01:22:02
    {"Subs": {"2_English.srt": 138612, "3_English.srt": 146787}, "RARBG.txt": 30, "RARBG_DO_NOT_MIRROR.exe": 99, "Love.On.Fire.2022.1080p.WEBRip.x264-RARBG.mp4": 1807607171}
创建时间: 2022-03-23 20:55:56 大小:1.68 GB 文件数量:5 热度:3 最近下载:2025-01-06 06:04:02
    ... .flac": 8835982, "03 - Flames of Fire.flac": 24061658, "08 - Soldiers of ...
创建时间: 2022-03-24 17:30:48 大小:260.96 MB 文件数量:10 热度:3 最近下载:2025-03-03 10:33:01
    {"cover.png": 2617699, "01 - Stormbringer.mp3": 10143312, "07 - The Conqueror.mp3": 12839151, "02 - King of the Wind.mp3": 9699239, "04 - Scream of Freedom.mp3": 8638669, "05 - Sword and Sorcery.mp3": 8293853, "06 - Birth of a Legend.mp3": 2429885, "03 - ...
创建时间: 2022-03-26 15:43:22 大小:83.46 MB 文件数量:10 热度:3 最近下载:2025-01-09 17:46:06
    {"Subs": {"2_English.srt": 138612, "3_English.srt": 146787}, "RARBG.txt": 30, "RARBG_DO_NOT_MIRROR.exe": 99, "Love.On.Fire.2022.1080p.WEBRip.x265-RARBG.mp4": 1477504537}
创建时间: 2022-03-26 16:12:12 大小:1.38 GB 文件数量:5 热度:4 最近下载:2025-01-10 10:58:10
    ... ": 11064739, "002. Flames Of Fire - Gloria.mp3": 10423176, "004 ... . Flames Of Fire - Madness.mp3": 9654133, "001 ... ": 3900926, "007. Flames Of Fire - Solution.mp3": 23716372, "006 ... , "003. Flames Of Fire - Flames Of Fire.mp3": 8165167, "008. ...
创建时间: 2022-03-26 18:46:34 大小:89.82 MB 文件数量:11 热度:3 最近下载:2025-01-18 21:10:07
    ... mp3": 9235175, "Ironmaster - Thy Ancient Fire - 01. The Unbreathing.mp3": 8200730 ... , "Ironmaster - Thy Ancient Fire - 02. Thy Ancient Fire.mp3": 11155703, "Ironmaster - ... mp3": 11355282, "Ironmaster - Thy Ancient Fire - 08. Demonic Sovereignty.mp3": 10755513 ...
创建时间: 2022-03-31 13:37:28 大小:98.24 MB 文件数量:13 热度:3 最近下载:2025-01-02 12:31:01
    ... 191555, "Nivea Soares - Fan The Fire (2022).txt": 658, "Nivea Soares - ... 19382491, "Nivea Soares - Fan The Fire - 11 - Love You.mp3": ... Nivea Soares - Fan The Fire - 05 - Fan The Fire.mp3": 12563495, "Nivea ... , "Nivea Soares - Fan The Fire - 01 - Time To Worship. ...
创建时间: 2022-03-31 19:41:59 大小:170.56 MB 文件数量:14 热度:3 最近下载:2025-01-22 11:08:11
    {"cover.jpg": 51096, "10 - Way to Go.flac": 34282050, "11 - The House.flac": 28601623, "12 - Crummy Blues.flac": 8290391, "07 - Blind Ambition.flac": 33571138, "03 - Hoppin” Blues.flac": 25946345, "08 - Once I Was Alive.flac": 49222247, "01 - I Just Wanna ...
创建时间: 2022-04-07 23:48:43 大小:393.69 MB 文件数量:13 热度:4 最近下载:2025-01-22 11:08:05
    {"cover.jpg": 197472, "03 - On Me.mp3": 9060341, "06 - Sick!.mp3": 6252701, "04 - Mariah.mp3": 7159674, "01 - Until I Die.mp3": 6101202, "07 - What Do I Do_.mp3": 9375917, "09 - Change My Mind.mp3": 8445959, "08 - It's Depression.mp3": 7810688, "10 - Long ...
创建时间: 2022-04-08 08:35:47 大小:76.43 MB 文件数量:12 热度:8 最近下载:2025-10-10 14:35:02
    ... .mp3": 11811232, "03 - Bite the Fire.mp3": 11601208, "08 - The Last ...
创建时间: 2022-04-09 17:01:10 大小:83.91 MB 文件数量:9 热度:3 最近下载:2025-03-03 10:27:05
    ... Myself.mp3": 12539579, "03. Friendly Fire.mp3": 9809264, "11. Brother Tongue ...
创建时间: 2022-04-10 07:24:08 大小:124.92 MB 文件数量:15 热度:3 最近下载:2025-01-09 17:45:02
    ... .flac": 35818601, "03 - Bite the Fire.flac": 35329531, "08 - The Last ...
创建时间: 2022-04-12 13:24:49 大小:255.97 MB 文件数量:9 热度:3 最近下载:2025-03-03 10:25:01
    {"folder.jpg": 857123, "05 - Signals.flac": 36314795, "07 - Run run.flac": 32693609, "02 - Rebellion.flac": 23096721, "08 - The temple.flac": 35136194, "10 - Last goodbye.flac": 32747794, "09 - Speed of light.flac": 36812255, "03 - Celestial voice.flac": ...
创建时间: 2022-04-16 23:13:45 大小:328.61 MB 文件数量:11 热度:3 最近下载:2025-01-09 13:56:14
    {"folder.jpg": 857123, "05 - Signals.mp3": 12130958, "07 - Run run.mp3": 10240737, "02 - Rebellion.mp3": 6850047, "08 - The temple.mp3": 11523878, "10 - Last goodbye.mp3": 11119508, "09 - Speed of light.mp3": 13717127, "03 - Celestial voice.mp3": 12433994, ...
创建时间: 2022-04-17 13:26:24 大小:108.38 MB 文件数量:11 热度:5 最近下载:2025-01-19 18:56:12
    {"INFO.nfo": 1158, "cover (1).jpg": 53758, "02. One Two.mp3": 10577526, "06. Ostende.mp3": 12156367, "08. Jeremy Irons.mp3": 9631909, "03. Stone Age Jazz.mp3": 14507409, "07. Regret Lasagna.mp3": 12058168, "04. Cacti Is Plural.mp3": 13438481, "09. Les Lè ...
创建时间: 2022-04-17 22:15:12 大小:105.97 MB 文件数量:11 热度:9 最近下载:2025-08-02 13:07:12